Regional Weather Roundup
Issued by NWS New Orleans/Baton Rouge, LA

Home | Current Version | Previous Version | Text Only | Print | Product List | Glossary On
Versions: 1 2 3 4 5 6 7 8 9 10 11 12 13 14 15 16 17 18 19 20 21 22 23 24 25 26 27 28 29 30 31 32 33 34 35 36 37 38 39 40 41 42 43 44 45 46 47 48 49 50
220
ASUS44 KLIX 220305
RWRLIX
NEW ORLEANS REGIONAL WEATHER ROUNDUP
NATIONAL WEATHER SERVICE NEW ORLEANS LA
1000 PM CDT SUN SEP 21 2014

NOTE: "FAIR" INDICATES FEW OR NO CLOUDS BELOW 12,000 FEET WITH NO
      SIGNIFICANT WEATHER AND/OR OBSTRUCTIONS TO VISIBILITY.
      SKY/WX - SKY CONDITION AND SIGNIFICANT WEATHER.
      TMP - AIR TEMPERATURE.     DP    - DEWPOINT TEMPERATURE.
      RH  - RELATIVE HUMIDITY.   PRES  - PRESSURE.
      HI  - HEAT INDEX.          WCI   - WIND CHILL INDEX.

*  THESE STATIONS ARE NOT NWS OR FAA STATIONS AND ARE NOT UNDER
   NWS QUALITY CONTROL.

LAZ038-040-048-061>063-065>067-069-220400-
SOUTHEAST LOUISIANA

CITY           SKY/WX    TMP DP  RH WIND       PRES   REMARKS
N.O. AUDUBON   NOT AVBL
N.O. INTL ARPT PTCLDY    80  66  62 SE3       30.01R
N.O. LAKEFRONT CLEAR     79  71  76 SE5       30.01R
N.O. DOWNTOWN*   N/A     81  66  61 SE5       30.01S
SLIDELL        CLEAR     72  69  90 CALM      30.01R
BATON ROUGE    CLEAR     73  70  90 CALM      30.02R
BOOTHVILLE     CLEAR     81  73  76 E7        30.00S
BELLE CHASSE   CLEAR     72  68  87 CALM      30.00R
BOGALUSA*        N/A     73  69  87 CALM      30.03R
GALLIANO*      NOT AVBL
NEW ROADS*       N/A     73  71  93 CALM      30.02R
GONZALES*        N/A     71  71 100 CALM      30.01R
HAMMOND*       CLEAR     73  68  83 CALM      30.03S
HOUMA*         CLEAR     72  67  82 CALM      30.00S
PORT FOURCHON* PTCLDY    81  73  78 E7        30.03S

$$

MSZ070-080>082-220400-
SOUTHERN MISSISSIPPI

CITY           SKY/WX    TMP DP  RH WIND       PRES   REMARKS
MCCOMB         CLEAR     71  66  84 CALM      30.03R
GULFPORT       CLEAR     75  71  87 CALM      30.00S
BILOXI         CLEAR     80  70  71 S2        30.01S
PASCAGOULA     CLEAR     69  68  96 CALM      30.01S

$$

COASTAL OBSERVATIONS
LAKE AND NEARSHORE STATIONS

STATION/POSITION TIME  TEMP    WIND        PRES    WAVE
                       AIR SEA DIR/SP/G            HT/PER
                 (UTC) (F)     (DEG/KT/KT) (MB)    (FT/S)
PASCAGOULA       0300   81     140/  4/  5 1015.7
WAVELAND YACHT   0300   82     140/  5/  6 1015.4
GRAND ISLE       0300   81 83   80/  7/ 13 1016.5
SOUTHWEST PASS   0300   85 90   80/ 16/ 18 1015.8
NEW CANAL        0300   80 81   CALM  /  2 1016.5
SHELL BEACH      0300   80 79  110/  6/  8 1015.9

OFFSHORE STATIONS

STATION/POSITION TIME  TEMP    WIND        PRES    WAVE
                       AIR SEA DIR/SP/G            HT/PER
                 (UTC) (F)     (DEG/KT/KT) (MB)    (FT/S)
64 S DAUPHIN ISL 0151   81 84   80/ 12/ 14 1016.0    3/ 6

$$




USA.gov is the U.S. government's official web portal to all federal, state and local government web resources and services.